RADUGA 3 [-]

Last updated on Wed Jun 28 2023 00:02:57 GMT+0000 (Coordinated Universal Time)

1 10159U 77071A 23177.97343007 .00000173 00000+0 00000+0 0 9990 2 10159 6.8934 288.1684 0009302 239.9711 132.5050 1.00255572166164

Satellite not in orbit

RADUGA 3 [-]